This demonstration page uses our WeatherBlox Daily Observations layout. Learn more.

Left ArrowRight Arrow

Hourly Observations for February 19, 2016

Temp ( °F °C ) Dew Point ( °F °C ) Humidity (%) Winds ( mph kmh ) Pressure ( in mb ) Visibility ( mi km ) Precip ( " mm )
12:53 am 00:53 Clear 35 1.7 26 -3.3 70 70 SSW 15 24 29.44 997 10 16 0.00 0.00
1:53 am 01:53 Clear 38 3.3 26 -3.3 62 62 SW 17 28 29.44 997 10 16 0.00 0.00
2:53 am 02:53 Clear 35 1.7 26 -3.3 70 70 SW 20 31 29.45 997 10 16 0.00 0.00
3:53 am 03:53 Clear 38 3.3 30 -1.1 73 73 WSW 24 39 29.48 998 10 16 0.00 0.00
4:53 am 04:53 Mostly Cloudy 37 2.8 29 -1.7 73 73 SW 21 33 29.52 1000 10 16 0.00 0.00
5:53 am 05:53 Mostly Cloudy 38 3.3 27 -2.8 65 65 WSW 26 43 29.53 1000 10 16 0.00 0.00
6:53 am 06:53 Clear 38 3.3 25 -3.9 60 60 WSW 28 44 29.56 1001 10 16 0.00 0.00
7:53 am 07:53 Partly Cloudy 36 2.2 25 -3.9 64 64 WSW 18 30 29.60 1002 10 16 0.00 0.00
8:53 am 08:53 Partly Cloudy 37 2.8 25 -3.9 62 62 SW 21 33 29.65 1004 10 16 0.00 0.00
9:53 am 09:53 Cloudy 43 6.1 23 -5 45 45 W 25 41 29.72 1006 10 16 0.00 0.00
10:53 am 10:53 Cloudy 42 5.6 31 -0.6 65 65 NW 17 28 29.77 1008 10 16 0.00 0.00
11:53 am 11:53 Cloudy 46 7.8 32 0 58 58 NW 23 37 29.78 1009 10 16 0.00 0.00
12:53 pm 12:53 Sunny 47 8.3 31 -0.6 54 54 WNW 21 33 29.79 1009 10 16 0.00 0.00
1:53 pm 13:53 Sunny 47 8.3 30 -1.1 52 52 NW 15 24 29.77 1008 10 16 0.00 0.00
2:53 pm 14:53 Sunny 49 9.4 28 -2.2 44 44 NW 15 24 29.77 1008 10 16 0.00 0.00
3:53 pm 15:53 Sunny 49 9.4 27 -2.8 43 43 NW 12 19 29.77 1008 10 16 0.00 0.00
4:53 pm 16:53 Sunny 46 7.8 26 -3.3 46 46 NW 3 6 29.78 1009 10 16 0.00 0.00
5:53 pm 17:53 Clear 37 2.8 26 -3.3 65 65 SE 7 11 29.80 1009 10 16 0.00 0.00
6:53 pm 18:53 Cloudy 35 1.7 25 -3.9 67 67 S 3 6 29.80 1009 10 16 0.00 0.00
7:53 pm 19:53 Cloudy 37 2.8 27 -2.8 67 67 ENE 7 11 29.81 1010 10 16 0.00 0.00
8:53 pm 20:53 Cloudy 38 3.3 27 -2.8 65 65 ENE 7 11 29.81 1010 10 16 0.00 0.00
9:53 pm 21:53 Cloudy 37 2.8 27 -2.8 67 67 SE 8 13 29.82 1010 10 16 0.00 0.00
10:53 pm 22:53 Cloudy 39 3.9 28 -2.2 65 65 W 5 7 29.81 1010 10 16 0.00 0.00
11:53 pm 23:53 Cloudy 37 2.8 27 -2.8 67 67 Calm 29.81 1009 10 16 0.00 0.00

Powered by AerisWeather